Location: Newark
(13.6797°N, 8.5297°E)
Time: 16:38:17
(UTC+00:00)

A-11 Canister half - Pass Details

Date: 23 January 2020
Orbit: 1517 x 1683 km, 47.2° (Epoch: 26 February)

Event Time Altitude Azimuth Distance (km) Brightness Sun altitude
Rises 22:58:21 0° 256° (WSW) 4,783 - -79.0°
Reaches altitude 10° 23:02:15 10° 269° (W) 3,771 - -79.8°
Maximum altitude 23:09:40 25° 321° (NW) 2,717 - -81.2°
Drops below altitude 10° 23:16:59 10° 14° (NNE) 3,689 - -82.4°
Sets 23:20:47 0° 27° (NNE) 4,660 - -83.0°
